Weather History for KTPA - April, 2013

Change the Weather History Date:

Thursday, April 11, 2013

  Actual Average Record
Temperature  
Mean Temperature 80 °F 71 °F  
Max Temperature 87 °F 80 °F 91 °F (1991)
Min Temperature 73 °F 62 °F 45 °F (1966)
Degree Days  
Heating Degree Days 0 0  
Month to date heating degree days 0 9  
Since 1 July heating degree days 400 536  
Cooling Degree Days 15 7  
Month to date cooling degree days 91 64  
Year to date cooling degree days 350 303  
Growing Degree Days 30 (Base 50)    
Moisture  
Dew Point 70 °F    
Average Humidity 69    
Maximum Humidity 87    
Minimum Humidity 51    
Precipitation  
Precipitation T in 0.08 in 1.90 in (1957)
Month to date precipitation 1.14 0.82  
Year to date precipitation 4.76 8.89  
Sea Level Pressure  
Sea Level Pressure 29.93 in    
Wind  
Wind Speed 9 mph (SSE)    
Max Wind Speed 21 mph    
Max Gust Speed 28 mph    
Visibility 10 miles    
Events Rain    
T = Trace of Precipitation, MM = Missing Value Source: NWS Daily Summary

Daily Weather History Graph

Daily Weather History Graph

Search for Another Location

Airport or City:

Trip Planner

Search our weather history database for the weather conditions in past years. The results will help you decide how hot, cold, wet, or windy it might be!

Date:

Astronomy

Apr. 11, 2013 Rise Set
Actual Time 7:09 AM EDT 7:53 PM EDT
Civil Twilight 6:45 AM EDT 8:17 PM EDT
Nautical Twilight 6:17 AM EDT 8:45 PM EDT
Astronomical Twilight 5:48 AM EDT 9:14 PM EDT
Moon 7:47 AM EDT (4/11) 9:17 PM EDT (4/11)
Length of Visible Light 13h 31m
Length of Day
12h 44m
New Moon, 2% of the Moon is Illuminated
Apr 11
New Moon
Apr 18
First Quarter
Apr 25
Full
May 2
Last Quarter
May 9
New

Hourly Weather History & Observations

Time (EDT) Temp. Heat Index Dew Point Humidity Pressure Visibility Wind Dir Wind Speed Gust Speed Precip Events Conditions
12:53 AM 75.0 °F - 66.0 °F 73% 29.99 in 10.0 mi SE 8.1 mph - N/A   Mostly Cloudy
1:53 AM 73.9 °F - 69.1 °F 85% 29.98 in 9.0 mi Variable 6.9 mph - 0.00 in Rain Light Rain
2:53 AM 73.9 °F - 69.1 °F 85% 29.96 in 10.0 mi SE 6.9 mph 16.1 mph 0.00 in   Mostly Cloudy
3:53 AM 73.0 °F - 70.0 °F 90% 29.95 in 10.0 mi SSE 6.9 mph - N/A   Scattered Clouds
4:44 AM 73.4 °F - 69.8 °F 88% 29.95 in 10.0 mi SE 8.1 mph - N/A   Mostly Cloudy
4:53 AM 73.0 °F - 70.0 °F 90% 29.95 in 10.0 mi SE 6.9 mph - N/A   Mostly Cloudy
5:32 AM 73.4 °F - 69.8 °F 88% 29.94 in 10.0 mi SE 8.1 mph - N/A   Mostly Cloudy
5:51 AM 73.4 °F - 69.8 °F 88% 29.94 in 10.0 mi SE 6.9 mph - N/A   Scattered Clouds
5:53 AM 73.0 °F - 70.0 °F 90% 29.94 in 10.0 mi Variable 6.9 mph - N/A   Partly Cloudy
6:53 AM 73.9 °F - 70.0 °F 87% 29.96 in 10.0 mi SE 9.2 mph - N/A   Scattered Clouds
7:06 AM 73.4 °F - 69.8 °F 88% 29.96 in 10.0 mi SE 6.9 mph - N/A   Mostly Cloudy
7:53 AM 73.9 °F - 70.0 °F 87% 29.97 in 9.0 mi SE 4.6 mph - N/A   Mostly Cloudy
8:53 AM 75.9 °F - 70.0 °F 82% 29.98 in 10.0 mi SSE 10.4 mph 16.1 mph N/A   Scattered Clouds
9:53 AM 78.1 °F - 70.0 °F 76% 29.98 in 10.0 mi SE 10.4 mph 18.4 mph N/A   Scattered Clouds
10:47 AM 78.8 °F - 69.8 °F 74% 29.99 in 10.0 mi SSE 12.7 mph 21.9 mph N/A   Mostly Cloudy
10:53 AM 79.0 °F - 70.0 °F 74% 29.99 in 10.0 mi SSE 10.4 mph 19.6 mph N/A   Mostly Cloudy
11:44 AM 82.4 °F 86.3 °F 69.8 °F 66% 29.98 in 10.0 mi SE 11.5 mph 19.6 mph N/A   Mostly Cloudy
11:53 AM 82.9 °F 86.5 °F 69.1 °F 63% 29.98 in 10.0 mi SSE 13.8 mph 21.9 mph N/A   Mostly Cloudy
12:53 PM 86.0 °F 90.4 °F 69.8 °F 58% 29.96 in 10.0 mi SE 9.2 mph 21.9 mph N/A   Mostly Cloudy
1:53 PM 86.0 °F 88.8 °F 66.9 °F 53% 29.94 in 10.0 mi SE 10.4 mph 19.6 mph N/A   Mostly Cloudy
2:53 PM 84.0 °F 87.8 °F 69.1 °F 61% 29.92 in 10.0 mi SSW 10.4 mph - N/A   Overcast
3:53 PM 84.0 °F 88.4 °F 70.0 °F 63% 29.88 in 10.0 mi South 11.5 mph - N/A   Mostly Cloudy
4:53 PM 84.9 °F 89.4 °F 70.0 °F 61% 29.86 in 10.0 mi SSW 12.7 mph - N/A   Mostly Cloudy
5:53 PM 81.0 °F 84.4 °F 70.0 °F 69% 29.86 in 10.0 mi SSW 16.1 mph 21.9 mph N/A   Mostly Cloudy
6:53 PM 80.1 °F 83.6 °F 71.1 °F 74% 29.85 in 10.0 mi South 13.8 mph 23.0 mph N/A   Mostly Cloudy
7:53 PM 78.1 °F - 72.0 °F 81% 29.85 in 10.0 mi South 11.5 mph - N/A   Mostly Cloudy
8:53 PM 79.0 °F - 70.0 °F 74% 29.83 in 10.0 mi South 8.1 mph - N/A   Scattered Clouds
9:53 PM 79.0 °F - 69.1 °F 72% 29.83 in 10.0 mi SSE 5.8 mph - N/A   Scattered Clouds
10:53 PM 77.0 °F - 70.0 °F 79% 29.88 in 10.0 mi South 4.6 mph - N/A   Partly Cloudy
11:53 PM 77.0 °F - 71.1 °F 82% 29.88 in 10.0 mi SSE 3.5 mph - N/A   Partly Cloudy